Погода в Бонга

Россия / Вологодская область     60°30′28″N   37°33′28″E
темп.,
°C
ветер,
м/с
пор.,
м/с
влажн.,
%
обл.,
%
осадки,
мм/ч
давл.,
гПа
погр.,
м
7 марта, вс
вс700:00−9ю51391100 0.0 999651
03:00−8ю71393100 0.9 994878
06:00−7ююв61394100 1.4 988785
09:00−6ююв61195100 3.1 985732
12:00−5вюв61295100 2.0 985718
15:00−4зюз4796100 5.3 986679
18:00−6зюз2597100 1.3 988277
21:00−8всв3796100 2.5 990483
8 марта, пн
пн800:00−9св51192100 0.6 992716
03:00−11св51290100 0.8 995656
06:00−13ссв51291100 0.1 998630
09:00−14ссв51291100 0.1 1002532
12:00−13ссв499198 0.0 1005524
15:00−12с478889 0.0 1008722
18:00−15с3992100 0.1 1010456
21:00−21с379778 0.1 1014160
9 марта, вт
вт900:00−25с23980 0.0 101546
03:00−28с23980 0.0 101751
06:00−30с23970 0.0 101956
09:00−27ссв25950 0.0 1021212
12:00−21ссв249117 0.0 1022366
15:00−16с24859 0.0 1023482
18:00−19сз22951 0.0 102324
21:00−25сз23961 0.0 102525
10 марта, ср
ср1000:00−24сз239293 0.0 102575
03:00−27сз239869 0.0 102651
06:00−28ссз23990 0.0 102732
09:00−23сз239712 0.0 1028115
12:00−16зсз249370 0.0 1027262
15:00−12сз368965 0.0 1027413
18:00−16сз369348 0.0 1027173
21:00−20ссз239157 0.0 102846
11 марта, чт
чт1100:00−21сз228763 0.0 102820
03:00−22зсз128936 0.0 102820
06:00−22з12950 0.0 102820
09:00−18юз13880 0.0 102885
12:00−12ююз23820 0.0 1026280
15:00−10ю35880 0.0 1024336
18:00−13ююв37950 0.0 1022147
21:00−15ююв4119421 0.0 1021339